Notices

What's New in latest Release from April 7th, 2021:

- Updated Glossary, including Speed of Maximum Gust, and Total Hourly Precipitation

- Updated national and regional climate services offices contacts and prices information

- Addition of station inventory lists for 1981-2010, 1971-2000, and 1961-1990 Normals.

If you haven't already, please take our survey and provide feedback about our website: https://eccc.sondage-survey.ca/f/LanguageSelection.aspx?s=442ca660-fcf1-47c0-95a9-59707d6fd709

Hourly Data Report for April 07, 2021

OTTAWA INTL A
ONTARIO
Current Station Operator: NAVCAN

45°19'00.000" N
75°40'00.000" W
114.90 m
6106001
71628
YOW

Download Data

Hourly Data (April 2021)
Hourly Data Report for April 7, 2021
TIME
LST
Temp Definition
°C
Dew Point Definition
°C
Rel Hum Definition
%
Precip. Amount Definition
mm

Wind Dir Definition
10's deg

Wind Spd Definition
km/h
Visibility Definition
km
Stn Press Definition
kPa
Hmdx Definition


Wind Chill Definition


Weather Definition


00:00 5.3 -4.2 50   21 5 24.1 100.28     LegendNANA
01:00 6.4 -5.4 43   28 5 24.1 100.30     Mostly Cloudy
02:00 6.8 -7.0 37   3 6 24.1 100.31     LegendNANA
03:00 5.7 -5.2 46   4 7 24.1 100.29     LegendNANA
04:00 4.8 -5.8 46   36 2 24.1 100.33     Mostly Cloudy
05:00 2.7 -5.0 57   6 9 24.1 100.36     LegendNANA
06:00 2.2 -4.6 61   5 9 24.1 100.44     LegendNANA
07:00 6.1 -1.7 57   4 13 24.1 100.52     Mainly Clear
08:00 9.2 -1.3 48   7 11 24.1 100.54     LegendNANA
09:00 12.1 -1.3 39   7 12 24.1 100.58     LegendNANA
10:00 14.4 1.7 42   12 13 24.1 100.55     Clear
11:00 15.4 4.0 46   7 14 24.1 100.54     LegendNANA
12:00 16.7 4.3 44   9 20 24.1 100.47     LegendNANA
13:00 17.2 5.9 47   7 10 24.1 100.45     Clear
14:00 18.2 6.0 44   11 17 24.1 100.43     LegendNANA
15:00 17.8 5.8 45   11 13 24.1 100.41     LegendNANA
16:00 17.9 6.3 46   9 13 24.1 100.39     Clear
17:00 17.4 6.7 49   8 13 24.1 100.42     LegendNANA
18:00 15.0 6.7 57   10 14 24.1 100.40     LegendNANA
19:00 13.2 6.7 64   10 13 24.1 100.41     Mostly Cloudy
20:00 12.8 6.6 66   9 15 24.1 100.44     LegendNANA
21:00 11.5 6.6 71   8 15 24.1 100.45     LegendNANA
22:00 10.6 6.4 75   7 15 24.1 100.46     Mostly Cloudy
23:00 9.8 6.2 78   6 15 24.1 100.45     LegendNANA

Notes on Data Quality.

Legend

  • E = Estimated
  • M = Missing
  • NA = Not Available*
  • [empty] = Indicates an unobserved value
Date modified: